DW4604 Weather Reports


time (UTC)temp
C
wind
direction
speed
KPH
gust
KPH
rain 1hr
cm
rain 24hr
cm
rain mn
cm
humidity
%
barometer
mb
20260831115502 23 0 0.0 0.0 0.00 0.00 0.00 74 1013.2
20260831114502 23 0 0.0 0.0 0.00 0.00 0.00 77 1013.0
20260831114004 22 0 0.0 0.0 0.00 0.00 0.00 82 1013.0
20260831113003 22 0 0.0 0.0 0.00 0.00 0.00 86 1013.1
20260831112504 22 0 0.0 0.0 0.00 0.00 0.00 86 1013.2
20260831112003 22 0 0.0 0.0 0.00 0.00 0.00 85 1013.2
20260831111503 22 0 0.0 0.0 0.00 0.00 0.00 84 1013.3
20260831110503 22 0 0.0 0.0 0.00 0.00 0.00 85 1013.3
20260831110003 22 0 0.0 0.0 0.00 0.00 0.00 87 1013.4
20260831105503 21 0 0.0 0.0 0.00 0.00 0.00 86 1013.4
20260831105003 21 0 0.0 0.0 0.00 0.00 0.00 85 1013.4
20260831104504 21 0 0.0 0.0 0.00 0.00 0.00 85 1013.5
20260831104003 22 0 0.0 0.0 0.00 0.00 0.00 83 1013.4
20260831103502 22 0 0.0 0.0 0.00 0.00 0.00 83 1013.5
20260831102503 22 0 0.0 0.0 0.00 0.00 0.00 80 1013.4
20260831102003 22 0 0.0 0.0 0.00 0.00 0.00 80 1013.5
20260831101004 23 0 0.0 0.0 0.00 0.00 0.00 75 1013.6
20260831100004 22 0 0.0 0.0 0.00 0.00 0.00 81 1013.5
20260831095504 22 0 0.0 0.0 0.00 0.00 0.00 80 1013.5
20260831095003 22 0 0.0 0.0 0.00 0.00 0.00 79 1013.4
20260831094005 22 0 0.0 0.0 0.00 0.00 0.00 76 1013.5
20260831093503 22 0 0.0 0.0 0.00 0.00 0.00 78 1013.5
20260831093003 23 0 0.0 0.0 0.00 0.00 0.00 78 1013.4
20260831092503 23 0 0.0 0.0 0.00 0.00 0.00 79 1013.4
20260831092003 23 0 0.0 0.0 0.00 0.00 0.00 77 1013.4
20260831091503 23 0 0.0 0.0 0.00 0.00 0.00 75 1013.4
20260831091003 23 0 0.0 0.0 0.00 0.00 0.00 70 1013.2
20260831090503 23 0 0.0 0.0 0.00 0.00 0.00 69 1013.3
20260831085503 23 0 0.0 0.0 0.00 0.00 0.00 70 1013.4
20260831084503 23 0 0.0 0.0 0.00 0.00 0.00 71 1013.5
20260831084003 23 0 0.0 0.0 0.00 0.00 0.00 71 1013.4
20260831083503 23 0 0.0 0.0 0.00 0.00 0.00 73 1013.4
20260831083003 23 0 0.0 0.0 0.00 0.00 0.00 72 1013.3
20260831082505 23 0 0.0 0.0 0.00 0.00 0.00 71 1013.3
20260831082004 23 0 0.0 0.0 0.00 0.00 0.00 69 1013.4
20260831081003 23 0 0.0 0.0 0.00 0.00 0.00 68 1013.3
20260831080003 22 0 0.0 0.0 0.00 0.00 0.00 75 1013.5
20260831075503 22 0 0.0 0.0 0.00 0.00 0.00 73 1013.5
20260831075005 22 0 0.0 0.0 0.00 0.00 0.00 73 1013.5
20260831074503 22 0 0.0 0.0 0.00 0.00 0.00 71 1013.4
20260831074004 22 0 0.0 0.0 0.00 0.00 0.00 74 1013.4
20260831073004 21 0 0.0 0.0 0.00 0.00 0.00 79 1013.5
20260831072504 20 0 0.0 0.0 0.00 0.00 0.00 81 1013.6
20260831072005 20 0 0.0 0.0 0.00 0.00 0.00 82 1013.6
20260831071503 19 0 0.0 0.0 0.00 0.00 0.00 84 1013.6
20260831071004 19 0 0.0 0.0 0.00 0.00 0.00 84 1013.6
20260831070504 19 0 0.0 0.0 0.00 0.00 0.00 84 1013.6
20260831070003 18 0 0.0 0.0 0.00 0.00 0.00 84 1013.7
20260831065004 18 0 0.0 0.0 0.00 0.00 0.00 85 1013.7
20260831064504 18 0 0.0 0.0 0.00 0.00 0.00 86 1013.7
20260831064005 18 0 0.0 0.0 0.00 0.00 0.00 87 1013.8
20260831063504 18 0 0.0 0.0 0.00 0.00 0.00 89 1013.8
20260831062005 17 0 0.0 0.0 0.00 0.00 0.00 92 1013.9
20260831061504 17 0 0.0 0.0 0.00 0.00 0.00 93 1013.9
20260831061003 17 0 0.0 0.0 0.00 0.00 0.00 94 1013.9
20260831060504 16 0 0.0 0.0 0.00 0.00 0.00 94 1014.0
20260831060004 16 0 0.0 0.0 0.00 0.00 0.00 95 1013.8
20260831055504 16 0 0.0 0.0 0.00 0.00 0.00 95 1013.9
20260831055004 16 0 0.0 0.0 0.00 0.00 0.00 95 1013.9
20260831054004 16 0 0.0 0.0 0.00 0.00 0.00 95 1013.9
20260831053504 16 0 0.0 0.0 0.00 0.00 0.00 95 1014.0
20260831053004 16 0 0.0 0.0 0.00 0.00 0.00 95 1013.9
20260831052504 16 0 0.0 0.0 0.00 0.00 0.00 95 1013.9
20260831051504 15 0 0.0 0.0 0.00 0.00 0.00 95 1013.8
20260831051004 15 0 0.0 0.0 0.00 0.00 0.00 95 1013.8
20260831050503 15 0 0.0 0.0 0.00 0.00 0.00 95 1013.8
20260831050004 14 0 0.0 0.0 0.00 0.00 0.00 94 1013.8
20260831045505 13 0 0.0 0.0 0.00 0.00 0.00 94 1013.8
20260831045004 13 0 0.0 0.0 0.00 0.00 0.00 94 1013.8
20260831044504 13 0 0.0 0.0 0.00 0.00 0.00 94 1013.8
20260831044004 13 0 0.0 0.0 0.00 0.00 0.00 94 1013.9
20260831043504 13 0 0.0 0.0 0.00 0.00 0.00 94 1013.9
20260831042504 13 0 0.0 0.0 0.00 0.00 0.00 94 1013.9
20260831042004 13 0 0.0 0.0 0.00 0.00 0.00 94 1013.8
20260831041506 13 0 0.0 0.0 0.00 0.00 0.00 94 1013.8
20260831040505 13 0 0.0 0.0 0.00 0.00 0.00 94 1013.8
20260831040005 13 0 0.0 0.0 0.00 0.00 0.00 94 1013.9
20260831034504 13 0 0.0 0.0 0.00 0.00 0.00 94 1013.8
20260831034004 13 0 0.0 0.0 0.00 0.00 0.00 94 1013.9
20260831033504 13 0 0.0 0.0 0.00 0.00 0.00 94 1013.8
20260831033004 13 0 0.0 0.0 0.00 0.00 0.00 94 1013.9
20260831032505 13 0 0.0 0.0 0.00 0.00 0.00 94 1013.9
20260831032004 13 0 0.0 0.0 0.00 0.00 0.00 94 1013.9
20260831031504 13 0 0.0 0.0 0.00 0.00 0.00 94 1013.9
20260831031004 13 0 0.0 0.0 0.00 0.00 0.00 94 1013.9
20260831030504 13 0 0.0 0.0 0.00 0.00 0.00 94 1014.0
20260831030006 13 0 0.0 0.0 0.00 0.00 0.00 94 1013.9
20260831025504 13 0 0.0 0.0 0.00 0.00 0.00 94 1014.0
20260831025004 13 0 0.0 0.0 0.00 0.00 0.00 94 1013.9
20260831024005 13 0 0.0 0.0 0.00 0.00 0.00 94 1014.0
20260831023505 13 0 0.0 0.0 0.00 0.00 0.00 93 1014.0
20260831023005 13 0 0.0 0.0 0.00 0.00 0.00 93 1014.0
20260831021505 13 0 0.0 0.0 0.00 0.00 0.00 93 1014.0
20260831021004 13 0 0.0 0.0 0.00 0.00 0.00 93 1014.1
20260831020505 14 0 0.0 0.0 0.00 0.00 0.00 93 1014.0
20260831020004 14 0 0.0 0.0 0.00 0.00 0.00 93 1014.0
20260831015504 14 0 0.0 0.0 0.00 0.00 0.00 93 1014.0
20260831015004 14 0 0.0 0.0 0.00 0.00 0.00 93 1014.0
20260831014005 14 0 0.0 0.0 0.00 0.00 0.00 93 1014.0
20260831013505 14 0 0.0 0.0 0.00 0.00 0.00 93 1014.0
20260831013006 14 0 0.0 0.0 0.00 0.00 0.00 93 1014.0
20260831012505 14 0 0.0 0.0 0.00 0.00 0.00 93 1014.0
20260831012005 14 0 0.0 0.0 0.00 0.00 0.00 93 1014.0
20260831011505 14 0 0.0 0.0 0.00 0.00 0.00 93 1014.0
20260831010506 14 0 0.0 0.0 0.00 0.00 0.00 93 1014.1
20260831010005 14 0 0.0 0.0 0.00 0.00 0.00 93 1014.1
20260831005505 14 0 0.0 0.0 0.00 0.00 0.00 93 1014.2
20260831005007 14 0 0.0 0.0 0.00 0.00 0.00 93 1014.2
20260831004005 15 0 0.0 0.0 0.00 0.00 0.00 92 1014.3
20260831003505 15 0 0.0 0.0 0.00 0.00 0.00 92 1014.3
20260831002005 15 0 0.0 0.0 0.00 0.00 0.00 92 1014.3
20260831001505 15 0 0.0 0.0 0.00 0.00 0.00 92 1014.3
20260831001005 15 0 0.0 0.0 0.00 0.00 0.00 92 1014.3
20260831000006 15 0 0.0 0.0 0.00 0.00 0.00 92 1014.3
20260830235506 15 0 0.0 0.0 0.00 0.00 0.00 92 1014.3
20260830235005 15 0 0.0 0.0 0.00 0.00 0.00 92 1014.3
20260830234505 15 0 0.0 0.0 0.00 0.00 0.00 92 1014.4
20260830234007 15 0 0.0 0.0 0.00 0.00 0.00 92 1014.4
20260830233505 15 0 0.0 0.0 0.00 0.00 0.00 91 1014.4
20260830233005 15 0 0.0 0.0 0.00 0.00 0.00 91 1014.3
20260830232506 15 0 0.0 0.0 0.00 0.00 0.00 91 1014.3
20260830232005 15 0 0.0 0.0 0.00 0.00 0.00 91 1014.4
20260830231506 15 0 0.0 0.0 0.00 0.00 0.00 91 1014.3
20260830230505 15 0 0.0 0.0 0.00 0.00 0.00 91 1014.3
20260830230005 15 0 0.0 0.0 0.00 0.00 0.00 91 1014.3
20260830225431 15 0 0.0 0.0 0.00 0.00 0.00 90 1014.3
20260830224931 16 0 0.0 0.0 0.00 0.00 0.00 90 1014.3
20260830224433 16 0 0.0 0.0 0.00 0.00 0.00 90 1014.3
20260830223932 16 0 0.0 0.0 0.00 0.00 0.00 90 1014.4
20260830223432 16 0 0.0 0.0 0.00 0.00 0.00 90 1014.5
20260830222932 16 0 0.0 0.0 0.00 0.00 0.00 90 1014.4
20260830221932 16 0 0.0 0.0 0.00 0.00 0.00 89 1014.5
20260830221432 16 0 0.0 0.0 0.00 0.00 0.00 89 1014.5
20260830220932 16 0 0.0 0.0 0.00 0.00 0.00 89 1014.6
20260830220433 16 0 0.0 0.0 0.00 0.00 0.00 89 1014.5
20260830215932 16 0 0.0 0.0 0.00 0.00 0.00 89 1014.5
20260830215432 17 0 0.0 0.0 0.00 0.00 0.00 89 1014.6
20260830213932 17 0 0.0 0.0 0.00 0.00 0.00 88 1014.6
20260830213432 17 0 0.0 0.0 0.00 0.00 0.00 88 1014.6
20260830212433 18 0 0.0 0.0 0.00 0.00 0.00 88 1014.5
20260830211932 18 0 0.0 0.0 0.00 0.00 0.00 87 1014.5
20260830211433 18 0 0.0 0.0 0.00 0.00 0.00 87 1014.5
20260830210932 18 0 0.0 0.0 0.00 0.00 0.00 87 1014.3
20260830210433 18 0 0.0 0.0 0.00 0.00 0.00 87 1014.3
20260830205934 18 0 0.0 0.0 0.00 0.00 0.00 86 1014.3
20260830205432 18 0 0.0 0.0 0.00 0.00 0.00 86 1014.3
20260830204932 18 0 0.0 0.0 0.00 0.00 0.00 85 1014.2
20260830204432 18 0 0.0 0.0 0.00 0.00 0.00 85 1014.2
20260830203932 18 0 0.0 0.0 0.00 0.00 0.00 85 1014.2
20260830203432 18 0 0.0 0.0 0.00 0.00 0.00 85 1014.2
20260830201932 18 0 0.0 0.0 0.00 0.00 0.00 86 1014.0
20260830201432 17 0 0.0 0.0 0.00 0.00 0.00 86 1014.0
20260830200933 17 0 0.0 0.0 0.00 0.00 0.00 86 1014.0
20260830200432 17 0 0.0 0.0 0.00 0.00 0.00 86 1014.0
20260830195932 17 0 0.0 0.0 0.00 0.00 0.00 86 1014.0
20260830195432 17 0 0.0 0.0 0.00 0.00 0.00 86 1014.0
20260830194932 17 0 0.0 0.0 0.00 0.00 0.00 86 1014.0
20260830194434 17 0 0.0 0.0 0.00 0.00 0.00 86 1014.0
20260830193433 17 0 0.0 0.0 0.00 0.00 0.00 85 1014.0
20260830192932 17 0 0.0 0.0 0.00 0.00 0.00 84 1013.9
20260830192432 17 0 0.0 0.0 0.00 0.00 0.00 84 1013.9
20260830191933 17 0 0.0 0.0 0.00 0.00 0.00 83 1013.9
20260830191433 18 0 0.0 0.0 0.00 0.00 0.00 82 1013.8
20260830190934 18 0 0.0 0.0 0.00 0.00 0.00 82 1013.9
20260830190432 18 0 0.0 0.0 0.00 0.00 0.00 81 1013.9
20260830185434 18 0 0.0 0.0 0.00 0.00 0.00 80 1014.0
20260830184933 18 0 0.0 0.0 0.00 0.00 0.00 80 1014.0
20260830184433 19 0 0.0 0.0 0.00 0.00 0.00 79 1014.0
20260830183933 19 0 0.0 0.0 0.00 0.00 0.00 79 1014.0
20260830183433 19 0 0.0 0.0 0.00 0.00 0.00 78 1013.9
20260830182933 20 0 0.0 0.0 0.00 0.00 0.00 77 1013.9
20260830182433 20 0 0.0 0.0 0.00 0.00 0.00 76 1013.9
20260830181932 20 0 0.0 0.0 0.00 0.00 0.00 76 1013.8
20260830181432 20 0 0.0 0.0 0.00 0.00 0.00 76 1013.8
20260830180933 20 0 0.0 0.0 0.00 0.00 0.00 74 1013.8
20260830180433 21 0 0.0 0.0 0.00 0.00 0.00 73 1013.7
20260830175933 21 0 0.0 0.0 0.00 0.00 0.00 73 1013.7
20260830175433 21 0 0.0 0.0 0.00 0.00 0.00 73 1013.6
20260830174933 21 0 0.0 0.0 0.00 0.00 0.00 74 1013.6
20260830174433 21 0 0.0 0.0 0.00 0.00 0.00 74 1013.5
20260830173433 21 0 0.0 0.0 0.00 0.00 0.00 73 1013.5
20260830172933 21 0 0.0 0.0 0.00 0.00 0.00 73 1013.5
20260830172434 21 0 0.0 0.0 0.00 0.00 0.00 73 1013.3
20260830171934 22 0 0.0 0.0 0.00 0.00 0.00 72 1013.3
20260830171433 22 0 0.0 0.0 0.00 0.00 0.00 70 1013.3
20260830170933 22 0 0.0 0.0 0.00 0.00 0.00 70 1013.3
20260830165933 23 0 0.0 0.0 0.00 0.00 0.00 69 1013.3
20260830165433 23 0 0.0 0.0 0.00 0.00 0.00 69 1013.3
20260830164933 23 0 0.0 0.0 0.00 0.00 0.00 69 1013.4
20260830164433 23 0 0.0 0.0 0.00 0.00 0.00 69 1013.4
20260830163433 23 0 0.0 0.0 0.00 0.00 0.00 68 1013.3
20260830162433 23 0 0.0 0.0 0.00 0.00 0.00 68 1013.4
20260830161933 24 0 0.0 0.0 0.00 0.00 0.00 65 1013.3
20260830161433 25 0 0.0 0.0 0.00 0.00 0.00 61 1013.4
20260830160433 25 0 0.0 0.0 0.00 0.00 0.00 62 1013.4
20260830155933 25 0 0.0 0.0 0.00 0.00 0.00 61 1013.5
20260830155433 25 0 0.0 0.0 0.00 0.00 0.00 61 1013.5
20260830154933 24 0 0.0 0.0 0.00 0.00 0.00 63 1013.5
20260830154434 25 0 0.0 0.0 0.00 0.00 0.00 61 1013.5
20260830153934 25 0 0.0 0.0 0.00 0.00 0.00 58 1013.6
20260830153433 26 0 0.0 0.0 0.00 0.00 0.00 57 1013.6
20260830152935 26 0 0.0 0.0 0.00 0.00 0.00 56 1013.6
20260830152434 26 0 0.0 0.0 0.00 0.00 0.00 56 1013.6
20260830151933 26 0 0.0 0.0 0.00 0.00 0.00 59 1013.6
20260830151433 26 0 0.0 0.0 0.00 0.00 0.00 56 1013.6
20260830150933 25 0 0.0 0.0 0.00 0.00 0.00 59 1013.6
20260830150435 25 0 0.0 0.0 0.00 0.00 0.00 59 1013.7
20260830145934 25 0 0.0 0.0 0.00 0.00 0.00 57 1013.7
20260830144933 26 0 0.0 0.0 0.00 0.00 0.00 56 1013.8
20260830144433 26 0 0.0 0.0 0.00 0.00 0.00 56 1013.8
20260830143933 26 0 0.0 0.0 0.00 0.00 0.00 54 1013.8
20260830143434 27 0 0.0 0.0 0.00 0.00 0.00 52 1013.8
20260830142934 27 0 0.0 0.0 0.00 0.00 0.00 53 1013.8
20260830142433 26 0 0.0 0.0 0.00 0.00 0.00 54 1013.8
20260830141934 27 0 0.0 0.0 0.00 0.00 0.00 52 1013.9
20260830141434 27 0 0.0 0.0 0.00 0.00 0.00 53 1013.9
20260830140934 27 0 0.0 0.0 0.00 0.00 0.00 54 1013.9
20260830140434 27 0 0.0 0.0 0.00 0.00 0.00 51 1013.9
20260830135934 27 0 0.0 0.0 0.00 0.00 0.00 52 1013.9
20260830135434 27 0 0.0 0.0 0.00 0.00 0.00 54 1013.9
20260830134933 27 0 0.0 0.0 0.00 0.00 0.00 53 1013.9
20260830134433 27 0 0.0 0.0 0.00 0.00 0.00 53 1013.9
20260830133934 27 0 0.0 0.0 0.00 0.00 0.00 52 1013.9
20260830133434 27 0 0.0 0.0 0.00 0.00 0.00 54 1013.9
20260830132435 27 0 0.0 0.0 0.00 0.00 0.00 52 1014.0
20260830131933 27 0 0.0 0.0 0.00 0.00 0.00 54 1014.0
20260830131433 27 0 0.0 0.0 0.00 0.00 0.00 53 1014.0
20260830130933 27 0 0.0 0.0 0.00 0.00 0.00 53 1014.0
20260830130434 27 0 0.0 0.0 0.00 0.00 0.00 52 1014.0
20260830125435 27 0 0.0 0.0 0.00 0.00 0.00 52 1014.2
20260830124934 27 0 0.0 0.0 0.00 0.00 0.00 59 1014.2
20260830124434 27 0 0.0 0.0 0.00 0.00 0.00 54 1014.2
20260830123934 27 0 0.0 0.0 0.00 0.00 0.00 52 1014.3
20260830123434 27 0 0.0 0.0 0.00 0.00 0.00 57 1014.3
20260830122934 27 0 0.0 0.0 0.00 0.00 0.00 56 1014.3
20260830122436 26 0 0.0 0.0 0.00 0.00 0.00 55 1014.3
20260830121434 27 0 0.0 0.0 0.00 0.00 0.00 56 1014.4
20260830120934 27 0 0.0 0.0 0.00 0.00 0.00 53 1014.4
20260830120435 26 0 0.0 0.0 0.00 0.00 0.00 54 1014.4
20260830115934 26 0 0.0 0.0 0.00 0.00 0.00 57 1014.5